URO223 EGFF-EGNV

Flight info

Callsign URO223
Flight time 0h 43m
Altitude 22000
Route BCN P69 DIZIM/N0400F240 N864 AVTIC N38 NOKIN P17 POL P18 GASKO
Aircraft A346/H-SDE2E3FGHIJ3J4J5M1RWXY/LB1D1

Departure

Time 2026-04-29 14:22
Airport Cardiff International Airport (EGFF)

Arrival

Time 2026-04-29 15:06
Airport Teesside International Airport (EGNV)
Time Latitude Longitude Altitude Speed Heading
2026-04-29 14:09 51.39912 -3.34301 230 ft 0 kts 297°
2026-04-29 14:15 51.39910 -3.34296 230 ft 3 kts 294°
2026-04-29 14:15 51.39910 -3.34292 230 ft 3 kts 262°
2026-04-29 14:15 51.39916 -3.34257 234 ft 4 kts 238°
2026-04-29 14:16 51.39932 -3.34231 240 ft 4 kts 211°
2026-04-29 14:16 51.39955 -3.34212 239 ft 2 kts 207°
2026-04-29 14:16 51.39961 -3.34208 238 ft 0 kts 207°
2026-04-29 14:18 51.39959 -3.34209 238 ft 1 kts 207°
2026-04-29 14:19 51.39928 -3.34235 240 ft 8 kts 207°
2026-04-29 14:19 51.39877 -3.34294 236 ft 10 kts 241°
2026-04-29 14:19 51.39878 -3.34424 233 ft 14 kts 289°
2026-04-29 14:19 51.39925 -3.34572 234 ft 16 kts 298°
2026-04-29 14:20 51.39985 -3.34762 232 ft 22 kts 296°
2026-04-29 14:20 51.40058 -3.35000 228 ft 25 kts 297°
2026-04-29 14:20 51.40119 -3.35192 230 ft 20 kts 297°
2026-04-29 14:20 51.40135 -3.35414 230 ft 20 kts 248°
2026-04-29 14:21 51.40052 -3.35493 232 ft 13 kts 158°
2026-04-29 14:21 51.39999 -3.35397 231 ft 0 kts 119°
2026-04-29 14:21 51.39991 -3.35375 228 ft 10 kts 119°
2026-04-29 14:21 51.39845 -3.34911 229 ft 82 kts 116°
2026-04-29 14:22 51.39499 -3.33790 236 ft 140 kts 118°
2026-04-29 14:22 51.38988 -3.32302 631 ft 154 kts 113°
2026-04-29 14:22 51.38507 -3.30777 1248 ft 154 kts 109°
2026-04-29 14:22 51.38064 -3.29263 2108 ft 145 kts 108°
2026-04-29 14:23 51.37625 -3.27734 2614 ft 157 kts 109°
2026-04-29 14:23 51.37131 -3.26049 3049 ft 174 kts 110°
2026-04-29 14:23 51.36584 -3.24212 3508 ft 190 kts 111°
2026-04-29 14:23 51.35983 -3.22213 3933 ft 209 kts 112°
2026-04-29 14:24 51.35623 -3.19858 4393 ft 228 kts 89°
2026-04-29 14:24 51.36053 -3.17386 5148 ft 243 kts 65°
2026-04-29 14:24 51.37257 -3.15392 5708 ft 260 kts 39°
2026-04-29 14:24 51.38847 -3.13886 6360 ft 269 kts 36°
2026-04-29 14:25 51.40525 -3.12520 7372 ft 276 kts 22°
2026-04-29 14:25 51.42477 -3.12275 8318 ft 291 kts 356°
2026-04-29 14:25 51.44471 -3.13051 9286 ft 299 kts 346°
2026-04-29 14:25 51.46465 -3.14110 10230 ft 304 kts 345°
2026-04-29 14:26 51.48519 -3.15188 10929 ft 318 kts 346°
2026-04-29 14:26 51.50693 -3.16255 11452 ft 336 kts 347°
2026-04-29 14:26 51.53001 -3.17334 11960 ft 355 kts 348°
2026-04-29 14:26 51.55433 -3.18453 12419 ft 374 kts 348°
2026-04-29 14:27 51.57991 -3.19625 13045 ft 387 kts 348°
2026-04-29 14:27 51.60602 -3.20825 14061 ft 394 kts 348°
2026-04-29 14:27 51.63255 -3.22047 14893 ft 399 kts 348°
2026-04-29 14:28 51.68677 -3.24530 16489 ft 410 kts 347°
2026-04-29 14:28 51.71434 -3.25557 17261 ft 413 kts 355°
2026-04-29 14:28 51.74304 -3.25832 18029 ft 414 kts
2026-04-29 14:28 51.77175 -3.25361 18740 ft 416 kts 13°
2026-04-29 14:29 51.80036 -3.24612 19466 ft 418 kts 14°
2026-04-29 14:29 51.82917 -3.23829 20204 ft 421 kts 14°
2026-04-29 14:29 51.85827 -3.23068 20941 ft 425 kts 13°
2026-04-29 14:29 51.88765 -3.22328 21641 ft 430 kts 13°
2026-04-29 14:30 51.91741 -3.21590 22026 ft 433 kts 13°
2026-04-29 14:30 51.94724 -3.20854 22114 ft 434 kts 13°
2026-04-29 14:30 51.97703 -3.20119 22100 ft 433 kts 13°
2026-04-29 14:30 52.00678 -3.19385 22064 ft 433 kts 13°
2026-04-29 14:31 52.03662 -3.18736 22036 ft 433 kts 11°
2026-04-29 14:31 52.06673 -3.18341 22046 ft 434 kts
2026-04-29 14:31 52.09691 -3.18088 22047 ft 434 kts
2026-04-29 14:31 52.12724 -3.17872 22055 ft 434 kts
2026-04-29 14:32 52.15740 -3.17653 22057 ft 434 kts
2026-04-29 14:32 52.18756 -3.17427 22067 ft 434 kts
2026-04-29 14:32 52.21772 -3.17197 22067 ft 433 kts
2026-04-29 14:32 52.24780 -3.16967 22045 ft 433 kts
2026-04-29 14:33 52.27744 -3.16746 22068 ft 431 kts
2026-04-29 14:33 52.30787 -3.16511 22074 ft 432 kts
2026-04-29 14:33 52.33746 -3.16280 22073 ft 432 kts
2026-04-29 14:33 52.36745 -3.16045 22084 ft 432 kts
2026-04-29 14:34 52.39745 -3.15811 22081 ft 431 kts
2026-04-29 14:34 52.42747 -3.15576 22081 ft 431 kts
2026-04-29 14:34 52.45743 -3.15343 22089 ft 432 kts
2026-04-29 14:34 52.48744 -3.15109 22064 ft 432 kts
2026-04-29 14:35 52.51738 -3.14879 22080 ft 430 kts
2026-04-29 14:35 52.54728 -3.14646 22096 ft 430 kts
2026-04-29 14:35 52.57715 -3.14411 22102 ft 430 kts
2026-04-29 14:35 52.60704 -3.14175 22102 ft 429 kts
2026-04-29 14:36 52.63688 -3.13941 22110 ft 429 kts
2026-04-29 14:36 52.66675 -3.13705 22109 ft 429 kts
2026-04-29 14:36 52.69641 -3.13339 22108 ft 425 kts 14°
2026-04-29 14:36 52.72512 -3.12348 22094 ft 418 kts 22°
2026-04-29 14:37 52.75184 -3.10744 22110 ft 411 kts 30°
2026-04-29 14:37 52.77809 -3.08740 22118 ft 409 kts 32°
2026-04-29 14:37 52.80372 -3.06692 22110 ft 409 kts 32°
2026-04-29 14:37 52.82940 -3.04640 22126 ft 409 kts 32°
2026-04-29 14:38 52.85475 -3.02633 22122 ft 410 kts 32°
2026-04-29 14:38 52.88056 -3.00601 22133 ft 411 kts 31°
2026-04-29 14:38 52.90697 -2.98716 22139 ft 414 kts 28°
2026-04-29 14:38 52.93397 -2.97014 22144 ft 415 kts 26°
2026-04-29 14:39 52.96107 -2.95367 22149 ft 415 kts 26°
2026-04-29 14:39 52.98824 -2.93717 22133 ft 415 kts 26°
2026-04-29 14:39 53.01528 -2.92072 22145 ft 414 kts 25°
2026-04-29 14:39 53.04250 -2.90408 22150 ft 414 kts 26°
2026-04-29 14:40 53.06882 -2.88508 22153 ft 410 kts 31°
2026-04-29 14:40 53.09355 -2.86286 22154 ft 407 kts 36°
2026-04-29 14:40 53.11720 -2.83738 22159 ft 405 kts 39°
2026-04-29 14:40 53.14039 -2.81083 22143 ft 404 kts 40°
2026-04-29 14:41 53.16350 -2.78406 22141 ft 404 kts 40°
2026-04-29 14:41 53.18661 -2.75725 22098 ft 405 kts 40°
2026-04-29 14:41 53.20967 -2.73052 21848 ft 402 kts 40°
2026-04-29 14:41 53.23263 -2.70390 21527 ft 400 kts 40°
2026-04-29 14:42 53.25544 -2.67745 21182 ft 397 kts 40°
2026-04-29 14:42 53.27806 -2.65123 20817 ft 394 kts 40°
2026-04-29 14:42 53.30053 -2.62517 20453 ft 391 kts 40°
2026-04-29 14:42 53.32282 -2.59928 20086 ft 389 kts 40°
2026-04-29 14:43 53.34499 -2.57350 19704 ft 386 kts 40°
2026-04-29 14:43 53.36696 -2.54786 19303 ft 383 kts 39°
2026-04-29 14:43 53.38875 -2.52243 18918 ft 380 kts 39°
2026-04-29 14:43 53.41049 -2.49706 18509 ft 378 kts 39°
2026-04-29 14:44 53.43197 -2.47196 18092 ft 374 kts 39°
2026-04-29 14:44 53.45328 -2.44705 17670 ft 371 kts 39°
2026-04-29 14:44 53.47442 -2.42229 17255 ft 368 kts 40°
2026-04-29 14:44 53.49511 -2.39801 16852 ft 366 kts 40°
2026-04-29 14:45 53.51588 -2.37360 16441 ft 363 kts 40°
2026-04-29 14:45 53.53678 -2.34901 16029 ft 360 kts 40°
2026-04-29 14:45 53.55700 -2.32519 15635 ft 358 kts 40°
2026-04-29 14:45 53.57733 -2.30123 15237 ft 356 kts 40°
2026-04-29 14:46 53.59753 -2.27737 14844 ft 353 kts 40°
2026-04-29 14:46 53.61762 -2.25360 14439 ft 351 kts 40°
2026-04-29 14:46 53.63755 -2.23002 14020 ft 349 kts 40°
2026-04-29 14:46 53.65736 -2.20653 13581 ft 347 kts 40°
2026-04-29 14:47 53.67701 -2.18318 13172 ft 344 kts 40°
2026-04-29 14:47 53.69654 -2.15997 12777 ft 341 kts 40°
2026-04-29 14:47 53.71586 -2.13700 12383 ft 338 kts 40°
2026-04-29 14:47 53.72202 -2.12973 12251 ft 338 kts 38°
2026-04-29 14:48 53.72668 -2.12463 12145 ft 338 kts 37°
2026-04-29 14:48 53.74779 -2.10670 11780 ft 341 kts 27°
2026-04-29 14:48 53.77055 -2.09511 11417 ft 343 kts 18°
2026-04-29 14:48 53.79391 -2.08749 11060 ft 342 kts 15°
2026-04-29 14:49 53.81711 -2.08066 10833 ft 332 kts 15°
2026-04-29 14:49 53.83940 -2.07420 10772 ft 318 kts 15°
2026-04-29 14:49 53.86074 -2.06794 10685 ft 306 kts 15°
2026-04-29 14:49 53.88127 -2.06180 10595 ft 294 kts 16°
2026-04-29 14:50 53.90100 -2.05579 10496 ft 283 kts 16°
2026-04-29 14:50 53.90684 -2.05400 10478 ft 281 kts 16°
2026-04-29 14:51 53.92227 -2.04925 10400 ft 277 kts 16°
2026-04-29 14:51 53.94131 -2.04334 10074 ft 278 kts 17°
2026-04-29 14:51 53.94409 -2.04247 10032 ft 278 kts 16°
2026-04-29 14:52 53.94846 -2.04111 9951 ft 278 kts 16°
2026-04-29 14:52 53.95217 -2.03995 9889 ft 277 kts 16°
2026-04-29 14:52 53.97113 -2.03408 9580 ft 276 kts 16°
2026-04-29 14:53 53.98269 -2.03051 9383 ft 275 kts 16°
2026-04-29 14:53 53.99864 -2.02558 9154 ft 274 kts 16°
2026-04-29 14:53 54.00376 -2.02400 9074 ft 273 kts 16°
2026-04-29 14:54 54.01642 -2.02010 8876 ft 272 kts 16°
2026-04-29 14:54 54.03507 -2.01443 8602 ft 271 kts 16°
2026-04-29 14:55 54.05361 -2.00883 8320 ft 271 kts 16°
2026-04-29 14:55 54.07212 -2.00324 8028 ft 269 kts 16°
2026-04-29 14:55 54.09052 -1.99769 7750 ft 268 kts 16°
2026-04-29 14:55 54.10886 -1.99212 7472 ft 267 kts 16°
2026-04-29 14:56 54.12712 -1.98649 7171 ft 266 kts 16°
2026-04-29 14:56 54.13919 -1.98278 7005 ft 265 kts 15°
2026-04-29 14:56 54.15734 -1.97722 6719 ft 264 kts 17°
2026-04-29 14:56 54.17532 -1.97164 6441 ft 262 kts 16°
2026-04-29 14:57 54.19328 -1.96605 6161 ft 261 kts 16°
2026-04-29 14:57 54.21115 -1.96040 5884 ft 260 kts 19°
2026-04-29 14:57 54.22738 -1.94890 5569 ft 248 kts 40°
2026-04-29 14:57 54.24001 -1.92979 5317 ft 239 kts 51°
2026-04-29 14:58 54.25129 -1.90901 5048 ft 237 kts 52°
2026-04-29 14:58 54.26244 -1.88805 4786 ft 237 kts 52°
2026-04-29 14:58 54.27354 -1.86731 4524 ft 236 kts 52°
2026-04-29 14:58 54.28465 -1.84672 4271 ft 233 kts 52°
2026-04-29 14:59 54.29565 -1.82631 4016 ft 234 kts 51°
2026-04-29 14:59 54.30668 -1.80590 3756 ft 233 kts 51°
2026-04-29 14:59 54.31768 -1.78558 3501 ft 231 kts 51°
2026-04-29 14:59 54.32866 -1.76538 3243 ft 231 kts 51°
2026-04-29 15:00 54.33953 -1.74530 3008 ft 227 kts 50°
2026-04-29 15:00 54.35024 -1.72673 2995 ft 215 kts 49°
2026-04-29 15:00 54.36034 -1.70915 2992 ft 198 kts 51°
2026-04-29 15:00 54.36941 -1.69279 2996 ft 179 kts 52°
2026-04-29 15:01 54.37760 -1.67755 2989 ft 170 kts 52°
2026-04-29 15:01 54.38548 -1.66267 2989 ft 167 kts 53°
2026-04-29 15:01 54.39328 -1.64786 2988 ft 167 kts 53°
2026-04-29 15:01 54.40108 -1.63299 2980 ft 168 kts 53°
2026-04-29 15:02 54.40891 -1.61816 2891 ft 163 kts 53°
2026-04-29 15:02 54.41633 -1.60420 2673 ft 154 kts 54°
2026-04-29 15:02 54.42332 -1.59099 2442 ft 143 kts 54°
2026-04-29 15:02 54.42988 -1.57857 2236 ft 139 kts 53°
2026-04-29 15:03 54.43637 -1.56629 2108 ft 140 kts 53°
2026-04-29 15:03 54.44289 -1.55402 1890 ft 138 kts 53°
2026-04-29 15:03 54.44935 -1.54186 1707 ft 137 kts 54°
2026-04-29 15:03 54.45583 -1.52962 1524 ft 139 kts 53°
2026-04-29 15:04 54.46240 -1.51725 1336 ft 141 kts 52°
2026-04-29 15:04 54.46897 -1.50493 1132 ft 138 kts 52°
2026-04-29 15:04 54.47546 -1.49282 970 ft 137 kts 51°
2026-04-29 15:04 54.48192 -1.48088 823 ft 136 kts 50°
2026-04-29 15:05 54.48827 -1.46881 667 ft 136 kts 49°
2026-04-29 15:05 54.49463 -1.45683 418 ft 134 kts 49°
2026-04-29 15:05 54.50092 -1.44494 220 ft 133 kts 47°
2026-04-29 15:05 54.50658 -1.43431 130 ft 87 kts 47°
2026-04-29 15:06 54.50997 -1.42797 135 ft 66 kts 47°
2026-04-29 15:06 54.51243 -1.42335 133 ft 44 kts 47°
2026-04-29 15:06 54.51394 -1.42052 132 ft 27 kts 47°
2026-04-29 15:06 54.51534 -1.41887 131 ft 17 kts 25°
2026-04-29 15:07 54.51545 -1.41803 130 ft 4 kts 187°
2026-04-29 15:07 54.51499 -1.41870 131 ft 11 kts 221°
2026-04-29 15:07 54.51431 -1.41985 130 ft 19 kts 227°
2026-04-29 15:07 54.51331 -1.42171 131 ft 23 kts 226°
2026-04-29 15:08 54.51224 -1.42367 131 ft 23 kts 226°
2026-04-29 15:08 54.51106 -1.42585 131 ft 22 kts 227°
2026-04-29 15:08 54.51057 -1.42773 132 ft 19 kts 268°
2026-04-29 15:08 54.51059 -1.42989 136 ft 12 kts 272°
2026-04-29 15:09 54.51060 -1.43162 134 ft 16 kts 263°
2026-04-29 15:09 54.51017 -1.43336 130 ft 7 kts 239°
2026-04-29 15:09 54.50992 -1.43411 130 ft 0 kts 239°
2026-04-29 15:09 54.50985 -1.43432 126 ft 4 kts 248°
2026-04-29 15:10 54.50996 -1.43490 127 ft 8 kts 322°
2026-04-29 15:10 54.51049 -1.43514 131 ft 6 kts 41°
2026-04-29 15:10 54.51056 -1.43491 131 ft 0 kts 64°